Location: *
(2.5500°S, 65.9667°W)
Time: 16:09:42
(UTC+00:00)

X-37B - Visible Passes

Search period start: 22 January 2022 00:00
Search period end: 01 February 2022 00:00
Orbit: 334 x 337 km, 45.0° (Epoch: 11 January)

Date Brightness Start Highest point End Pass type
(mag) Time Alt. Az. Time Alt. Az. Time Alt. Az.
23 Jan 1.2 09:19:31 32° N 09:20:18 42° NE 09:23:01 10° ESE visible
24 Jan 1.6 09:39:39 21° W 09:40:40 26° SW 09:43:08 10° SSE visible
26 Jan 3.5 08:48:30 11° SSE 08:48:30 11° SSE 08:48:35 10° SSE visible
